Weather History for Fairbanks Ft. Wainwright, AK

Change the Weather History Date:

Monday, January 23, 2012

  Actual Average Record
Temperature  
Mean Temperature -10 °F -  
Max Temperature -7 °F 0 °F 33 °F (2014)
Min Temperature -14 °F -13 °F -31 °F (1997)
Degree Days  
Heating Degree Days 75    
Moisture  
Dew Point -20 °F    
Average Humidity 61    
Maximum Humidity 65    
Minimum Humidity 54    
Precipitation  
Precipitation 0.00 in - - ()
Snow  
Snow 0.00 in - - ()
Snow Depth 13.00 in    
Sea Level Pressure  
Sea Level Pressure 29.46 in    
Wind  
Wind Speed 8 mph (ENE)    
Max Wind Speed 10 mph    
Max Gust Speed -    
Visibility 7 miles    
Events Snow    
Averages and records for this station are not official NWS values.
T = Trace of Precipitation, MM = Missing Value Source: NWS Daily Summary

Daily Weather History Graph

Daily Weather History Graph

Search for Another Location

Airport:

Trip Planner

Search our weather history database for the weather conditions in past years. The results will help you decide how hot, cold, wet, or windy it might be!

Date:

Astronomy

Jan. 23, 2012 Rise Set
Actual Time 10:04 AM AKST 4:00 PM AKST
Civil Twilight 8:59 AM AKST 5:05 PM AKST
Nautical Twilight 7:56 AM AKST 6:09 PM AKST
Astronomical Twilight 6:58 AM AKST 7:07 PM AKST
Moon 9:30 AM AKST (1/23) 5:42 PM AKST (1/23)
Length of Visible Light 8h 05m
Length of Day
5h 55m
New Moon, 0% of the Moon is Illuminated
Jan 23
New Moon
Jan 30
First Quarter
Feb 7
Full
Feb 14
Last Quarter
Feb 21
New

Hourly Weather History & Observations

Time (AKST) Temp. Windchill Dew Point Humidity Pressure Visibility Wind Dir Wind Speed Gust Speed Precip Events Conditions
6:30 AM -7.6 °F -25.7 °F -16.6 °F 65% 29.45 in 4.0 mi ENE 10.4 mph - N/A Snow Light Snow
6:55 AM -7.6 °F -22.1 °F -16.6 °F 65% 29.45 in 3.0 mi ENE 6.9 mph - N/A Snow Light Snow
7:55 AM -7.6 °F -20.6 °F -16.6 °F 65% 29.46 in 4.0 mi NE 5.8 mph - N/A Snow Light Snow
8:14 AM -7.6 °F -24.6 °F -16.6 °F 65% 29.46 in 2.5 mi ENE 9.2 mph - N/A Snow Light Snow
8:32 AM -7.6 °F -22.1 °F -16.6 °F 65% 29.46 in 4.0 mi NE 6.9 mph - N/A Snow Light Snow Showers
8:55 AM -7.6 °F -22.1 °F -16.6 °F 65% 29.46 in 4.0 mi NE 6.9 mph - N/A Snow Light Snow Showers
9:50 AM -7.6 °F -24.6 °F -16.6 °F 65% 29.47 in 7.0 mi ENE 9.2 mph - N/A   Mostly Cloudy
9:55 AM -7.6 °F -24.6 °F -16.6 °F 65% 29.47 in 7.0 mi ENE 9.2 mph - N/A   Mostly Cloudy
10:55 AM -7.6 °F -20.6 °F -18.4 °F 59% 29.47 in 7.0 mi NE 5.8 mph - N/A   Mostly Cloudy
11:55 AM -7.6 °F -22.1 °F -20.2 °F 54% 29.47 in 85.0 mi ENE 6.9 mph - N/A   Mostly Cloudy
12:55 PM -9.4 °F -24.3 °F -20.2 °F 59% 29.47 in 13.0 mi ENE 6.9 mph - N/A   Mostly Cloudy
1:55 PM -9.4 °F -25.6 °F -20.2 °F 59% 29.47 in 13.0 mi NE 8.1 mph - N/A   Mostly Cloudy
2:55 PM -9.4 °F -25.6 °F -20.2 °F 59% 29.47 in 7.0 mi ENE 8.1 mph - N/A   Mostly Cloudy
3:55 PM -9.4 °F -27.9 °F -20.2 °F 59% 29.47 in 13.0 mi NE 10.4 mph - N/A   Mostly Cloudy
4:55 PM -11.2 °F -27.8 °F -23.8 °F 54% 29.46 in 7.0 mi ENE 8.1 mph - N/A   Mostly Cloudy
5:55 PM -11.2 °F -26.4 °F -23.8 °F 54% 29.46 in 7.0 mi ENE 6.9 mph - N/A   Overcast
6:56 PM -11.2 °F -24.8 °F -23.8 °F 54% 29.46 in 7.0 mi East 5.8 mph - N/A   Overcast
7:55 PM -13.0 °F -22.7 °F -23.8 °F 59% 29.45 in 7.0 mi ENE 3.5 mph - N/A   Overcast
8:46 PM -13.0 °F -27.0 °F -23.8 °F 59% 29.45 in 7.0 mi ENE 5.8 mph - N/A Snow Light Snow Showers
8:55 PM -13.0 °F -27.0 °F -23.8 °F 59% 29.45 in 7.0 mi East 5.8 mph - N/A Snow Light Snow Showers
9:55 PM -14.8 °F -29.1 °F -23.8 °F 64% 29.44 in 7.0 mi ENE 5.8 mph - N/A   Mostly Cloudy